Location: Nashville
(36.1660°N, 86.7840°W)
Time: 18:07:37
(UTC-06:00)

BlueWalker 3 - Visible Passes

Search period start: 30 November 2022 00:00
Search period end: 10 December 2022 00:00
Orbit: 500 x 519 km, 53.2° (Epoch: 30 November)

Date Brightness Start Highest point End Pass type
(mag) Time Alt. Az. Time Alt. Az. Time Alt. Az.
06 Dec 4.5 18:25:26 10° NNW 18:25:51 12° N 18:25:51 12° N visible
07 Dec 3.9 18:06:57 10° NNW 18:08:29 16° N 18:08:29 16° N visible
08 Dec 3.5 17:48:29 10° NNW 17:51:15 20° NNE 17:51:15 20° NNE visible
09 Dec 3.4 17:30:01 10° NNW 17:33:02 21° NNE 17:34:12 18° ENE visible
09 Dec 4.6 19:08:07 10° NW 19:09:04 17° WNW 19:09:04 17° WNW visible
